User: anonymous   Login
Location: Caltech
(34.1382°N, 118.1253°W)
Time: 23:44:32
(UTC-07:00)
Language:

NOSS 3-4 (C) - Orbit

View from above orbital plane
View from above orbital plane
View from above satellite
View from above satellite

Ground track
Ground track

The orbit data is extracted from the following two-line orbital elements,

1 31708U 07027C   18112.84789803 0.00000000  00000-0  00000-0 0    08
2 31708  63.4039  14.0641 0218000  21.5784 338.4216 13.40749095    09
Epoch (UTC): 22 April 2018 20:20:58
Eccentricity: 0.0218000
inclination: 63.4039°
perigee height: 943 km
apogee height: 1269 km
right ascension of ascending node: 14.0641°
argument of perigee: 21.5784°
revolutions per day: 13.40749095
mean anomaly at epoch: 338.4216°
orbit number at epoch: 0

The dashed part of the orbit path shows where the satellite is in the earth's shadow,  

DLR